TimeCDT,TemperatureF,Dew PointF,Humidity,Sea Level PressureIn,VisibilityMPH,Wind Direction,Wind SpeedMPH,Gust SpeedMPH,PrecipitationIn,Events,Conditions,WindDirDegrees,DateUTC
12:54 AM,36.0,33.1,89,30.23,10.0,Calm,Calm,-,N/A,,Clear,0,2012-10-11 05:54:00
1:54 AM,34.0,32.0,92,30.23,10.0,West,3.5,-,N/A,,Clear,260,2012-10-11 06:54:00
2:54 AM,35.1,32.0,89,30.23,10.0,Calm,Calm,-,N/A,,Clear,0,2012-10-11 07:54:00
3:54 AM,34.0,30.9,89,30.23,10.0,Calm,Calm,-,N/A,,Clear,0,2012-10-11 08:54:00
4:54 AM,34.0,30.9,89,30.22,10.0,Calm,Calm,-,N/A,,Clear,0,2012-10-11 09:54:00
5:54 AM,35.1,32.0,89,30.23,10.0,Calm,Calm,-,N/A,,Clear,0,2012-10-11 10:54:00
6:54 AM,35.1,32.0,89,30.23,10.0,Calm,Calm,-,N/A,,Scattered Clouds,0,2012-10-11 11:54:00
7:54 AM,43.0,32.0,65,30.24,10.0,SSW,4.6,-,N/A,,Partly Cloudy,200,2012-10-11 12:54:00
8:54 AM,48.0,30.9,52,30.24,10.0,South,10.4,-,N/A,,Partly Cloudy,180,2012-10-11 13:54:00
9:54 AM,53.1,33.1,47,30.25,10.0,South,8.1,-,N/A,,Scattered Clouds,180,2012-10-11 14:54:00
10:54 AM,54.0,33.1,45,30.25,10.0,South,9.2,-,N/A,,Overcast,190,2012-10-11 15:54:00
11:54 AM,59.0,36.0,42,30.23,10.0,South,9.2,-,N/A,,Overcast,190,2012-10-11 16:54:00
12:54 PM,61.0,37.0,41,30.21,10.0,South,9.2,-,N/A,,Mostly Cloudy,180,2012-10-11 17:54:00
1:54 PM,63.0,39.0,41,30.17,10.0,South,8.1,-,N/A,,Mostly Cloudy,180,2012-10-11 18:54:00
2:54 PM,64.9,41.0,42,30.15,10.0,South,9.2,-,N/A,,Mostly Cloudy,170,2012-10-11 19:54:00
3:54 PM,64.0,42.1,45,30.15,10.0,South,10.4,-,N/A,,Mostly Cloudy,180,2012-10-11 20:54:00
4:54 PM,62.6,42.8,48,30.13,10.0,South,5.8,-,N/A,,Mostly Cloudy,170,2012-10-11 21:54:00
5:54 PM,62.1,43.0,50,30.13,10.0,SSE,3.5,-,N/A,,Mostly Cloudy,150,2012-10-11 22:54:00
6:54 PM,61.0,43.0,52,30.14,10.0,Calm,Calm,-,N/A,,Overcast,0,2012-10-11 23:54:00
7:54 PM,60.1,46.0,60,30.15,10.0,Calm,Calm,-,N/A,,Overcast,0,2012-10-12 00:54:00
8:54 PM,60.1,46.9,62,30.16,10.0,SSW,4.6,-,N/A,,Overcast,200,2012-10-12 01:54:00
9:54 PM,57.0,48.9,74,30.18,8.0,Calm,Calm,-,0.00,Rain,Light Rain,0,2012-10-12 02:54:00
10:39 PM,55.4,51.8,88,30.19,7.0,SSE,3.5,-,0.00,Rain,Light Rain,160,2012-10-12 03:39:00
10:54 PM,55.0,51.1,86,30.20,8.0,Calm,Calm,-,0.01,Rain,Light Rain,0,2012-10-12 03:54:00
11:35 PM,53.6,51.8,94,30.19,10.0,Calm,Calm,-,0.00,,Overcast,0,2012-10-12 04:35:00
11:54 PM,55.0,52.0,89,30.20,10.0,Calm,Calm,-,0.00,,Overcast,0,2012-10-12 04:54:00